Location: Catstown
(52.4386°N, 7.2633°W)
Time: 11:54:45
(UTC+00:00)

IRS-1A Rocket - Pass Details

Date: 18 September 2020
Orbit: 851 x 931 km, 99.2° (Epoch: 22 October)

Event Time Altitude Azimuth Distance (km) Brightness Sun altitude
Exits shadow 19:46:51 - 156° (SSE) 3,546 7.0 -11.4°
Reaches altitude 10° 19:49:12 10° 156° (SSE) 2,632 6.4 -11.8°
Maximum altitude 19:55:06 79° 70° (ENE) 949 4.4 -12.6°
Drops below altitude 10° 20:00:58 10° 346° (NNW) 2,621 7.2 -13.5°
Sets 20:03:23 0° 345° (NNW) 3,558 8.0 -13.8°
